Wind_Speed
17 17 17 17 18 19 20 20 20 20 22 23 24 26 26 27 27 28 29 31 32 34 35 37 37 37 37 37 36 36 36 38 39 39 38 38 37 36
17 16 16 16 17 18 19 20 20 21 22 24 25 26 26 26 27 29 30 31 32 33 35 36 37 38 39 38 38 38 37 37 38 38 39 38 38 37
17 16 16 17 18 19 20 20 21 21 22 24 25 25 26 25 26 28 29 30 31 32 33 35 36 36 37 38 39 39 38 38 38 39 39 40 39 39
16 16 17 17 18 19 19 20 21 22 22 24 25 26 26 26 26 26 27 29 29 30 32 34 35 35 35 36 37 38 39 40 40 40 39 40 40 40
16 16 17 17 18 19 20 21 22 23 23 24 25 25 26 26 26 26 27 27 28 29 30 31 32 33 34 35 36 37 38 39 40 41 40 39 40 41
17 18 18 19 19 20 21 22 23 24 25 25 25 25 26 27 27 26 27 27 28 28 29 30 30 32 33 34 35 37 37 38 39 40 41 41 41 41
17 18 19 20 21 21 21 22 23 24 24 25 25 25 25 27 27 27 27 27 27 27 28 29 30 31 31 33 34 35 37 37 38 40 41 41 42 42
17 18 19 20 21 21 22 23 24 23 24 24 25 25 25 26 27 27 28 27 27 27 28 28 29 29 30 31 31 33 35 36 37 39 40 42 42 42
17 17 18 19 20 21 22 24 24 24 24 25 25 25 25 26 27 27 27 27 27 27 27 27 29 30 30 31 31 32 33 35 37 39 39 41 41 41
18 18 19 19 20 21 22 24 24 25 25 25 25 25 26 26 27 27 27 27 27 27 28 28 29 30 30 31 32 32 32 34 35 36 37 39 41 41
19 19 19 20 21 21 22 23 24 24 24 25 25 25 26 26 26 26 26 26 27 27 27 28 29 29 30 30 31 31 32 33 34 36 36 37 38 39
19 20 21 21 22 23 23 23 23 23 24 24 24 25 25 25 25 26 26 25 25 26 27 27 28 28 28 29 30 31 32 33 33 34 35 36 37 38
19 19 20 21 22 22 23 22 22 23 23 24 24 24 25 25 25 25 25 25 25 25 25 26 27 27 28 28 30 31 31 32 33 34 35 35 35 36
18 19 19 20 21 21 21 21 22 22 23 23 23 23 23 23 24 24 24 24 24 25 25 25 26 27 27 28 28 29 30 30 32 33 34 34 35 36
17 17 18 19 19 19 20 20 21 22 22 22 23 23 23 23 24 24 23 23 24 25 25 26 26 26 26 27 27 28 29 29 31 32 33 34 35 36
17 18 18 18 19 19 20 20 20 21 22 23 24 23 23 23 23 23 23 23 24 24 25 25 25 25 26 26 27 27 28 29 29 31 32 33 35 35
17 18 19 19 19 19 19 20 21 22 23 24 23 23 23 23 23 24 24 24 24 24 24 25 25 25 25 26 26 26 27 27 28 29 30 30 32 33
17 18 18 19 19 19 20 21 22 23 23 23 23 23 23 24 24 24 24 24 23 24 24 24 24 25 25 25 25 25 25 25 26 27 27 27 28 30
18 18 18 19 19 20 21 22 23 23 23 24 24 24 24 24 24 24 24 24 24 24 24 25 24 24 24 23 23 24 24 24 24 25 25 25 26 27
18 19 20 20 20 21 22 23 23 23 23 24 25 25 25 25 25 25 25 24 23 24 24 24 24 24 24 23 22 22 23 23 23 24 24 24 24 25
19 20 20 20 21 22 23 23 23 23 24 25 25 26 25 26 26 25 25 24 23 23 24 23 23 23 22 22 21 21 22 23 23 23 23 23 23 24
20 21 21 21 22 22 23 23 23 24 25 25 25 25 25 25 25 25 24 23 23 23 23 23 23 22 21 21 20 21 21 21 22 22 22 22 22 22
20 21 21 22 22 22 23 23 23 24 24 25 25 25 25 25 25 24 23 23 22 22 22 22 22 21 21 21 21 21 20 20 20 20 20 21 21 22
Wind_Direction
279 276 273 272 272 271 270 272 274 273 274 276 275 274 273 272 272 270 268 265 263 262 260 259 258 256 255 252 249 250 252 252 249 248 247 248 248 248
281 280 279 278 277 278 277 276 277 278 279 280 279 277 276 275 273 273 270 268 266 265 263 260 258 257 255 254 252 252 253 253 250 249 247 246 247 247
280 276 275 276 277 279 279 280 281 281 282 283 283 279 278 277 277 277 275 271 269 268 266 262 259 259 258 256 254 253 254 253 251 250 249 246 245 246
280 276 276 277 278 280 280 282 284 284 283 283 285 282 280 280 280 280 278 273 270 269 267 263 259 259 259 257 255 254 253 253 251 250 249 247 245 245
282 280 278 279 280 282 283 285 286 287 287 287 286 284 282 281 281 281 280 277 273 270 268 264 261 261 258 257 257 255 253 252 251 249 248 248 247 246
286 284 281 281 282 285 287 288 288 289 289 289 288 285 283 283 283 283 282 279 277 274 271 266 264 262 260 258 258 255 252 251 250 249 248 248 248 246
288 287 284 283 283 286 288 290 291 291 291 291 289 287 286 285 285 285 285 281 279 276 272 267 265 263 263 260 257 256 254 252 251 250 249 249 248 247
289 288 288 287 286 287 289 291 292 292 292 293 292 291 289 289 288 287 288 284 280 276 274 271 268 265 264 261 258 255 256 255 252 250 250 249 249 247
292 291 291 291 291 290 291 292 294 295 294 294 295 294 292 290 289 288 288 287 281 276 273 273 271 268 266 264 260 258 257 257 255 253 252 250 248 247
293 291 291 293 295 295 294 295 295 295 296 296 297 298 296 294 292 290 288 285 282 280 276 275 273 270 267 265 263 261 259 257 256 254 252 250 249 247
292 292 293 295 298 297 297 297 297 297 297 298 298 298 298 297 295 292 289 287 284 282 280 278 276 272 268 266 265 264 262 258 256 254 252 251 249 248
294 294 295 295 296 297 297 297 297 298 299 300 299 298 298 298 298 295 291 289 288 285 282 280 278 275 271 269 268 267 265 261 257 254 252 252 251 248
299 298 296 297 298 299 300 299 299 300 301 301 300 299 299 300 300 298 295 292 291 290 287 283 280 278 275 272 271 268 264 262 259 256 254 252 251 249
302 301 300 301 304 305 304 303 303 303 303 303 303 301 300 300 300 301 298 295 294 292 290 286 283 279 276 273 273 271 268 265 262 258 256 253 252 251
306 308 309 310 311 311 309 309 309 308 308 308 308 306 304 303 301 301 300 299 299 297 293 291 288 283 278 276 273 270 268 267 265 261 258 256 253 251
316 317 317 317 316 316 315 316 316 316 315 313 311 308 305 304 303 301 301 301 300 300 297 296 294 289 284 280 278 273 269 267 266 262 259 257 255 253
318 317 317 318 318 319 320 320 319 318 318 317 314 309 305 305 305 303 302 301 301 299 298 297 296 292 287 283 280 276 272 268 266 262 259 257 256 255
320 321 321 321 320 320 320 320 320 320 320 321 319 315 311 308 306 305 305 304 302 302 299 298 296 294 290 285 281 277 273 269 265 261 258 256 254 253
320 320 320 321 321 321 322 322 322 321 321 322 322 320 317 314 311 307 306 305 303 302 301 300 298 296 292 286 281 278 275 270 265 262 259 257 255 254
317 318 319 319 321 322 323 323 323 322 322 322 322 321 319 318 316 311 309 308 308 305 304 302 299 297 294 288 283 280 277 272 268 264 261 259 256 254
315 317 318 318 319 321 323 323 323 323 323 322 323 322 320 319 318 315 312 310 310 309 307 305 304 300 295 292 287 282 279 275 271 267 264 260 255 254
314 316 316 316 318 320 322 323 324 324 324 324 324 324 323 322 321 319 316 313 312 311 309 308 306 303 299 298 295 288 281 276 272 269 266 262 257 254
314 315 316 317 318 319 321 323 324 325 325 325 325 326 326 326 324 321 319 317 315 313 312 310 308 305 301 300 297 292 285 278 272 267 265 262 259 255
Height
5773 5773 5773 5773 5773 5773 5774 5774 5774 5773 5773 5772 5771 5771 5770 5769 5769 5769 5769 5769 5769 5769 5770 5771 5772 5773 5775 5777 5780 5782 5784 5787 5789 5791 5794 5797 5800 5802
5768 5768 5768 5769 5769 5769 5768 5768 5768 5768 5767 5766 5765 5764 5763 5762 5761 5761 5760 5760 5760 5760 5760 5760 5761 5763 5765 5767 5769 5771 5774 5776 5778 5781 5784 5786 5789 5792
5763 5763 5764 5764 5764 5763 5763 5763 5762 5762 5761 5759 5758 5756 5755 5755 5754 5753 5751 5751 5750 5750 5750 5750 5751 5752 5754 5756 5758 5760 5763 5765 5767 5770 5773 5776 5779 5782
5758 5758 5759 5759 5758 5758 5758 5757 5756 5755 5754 5753 5751 5749 5748 5747 5746 5745 5743 5742 5741 5741 5740 5740 5741 5742 5744 5745 5747 5749 5752 5754 5756 5759 5762 5765 5768 5771
5753 5753 5753 5754 5753 5753 5752 5751 5750 5749 5747 5746 5744 5742 5741 5739 5738 5737 5735 5733 5732 5732 5731 5731 5731 5733 5734 5735 5737 5739 5740 5743 5745 5748 5750 5753 5757 5760
5748 5748 5748 5748 5748 5747 5746 5745 5743 5742 5740 5739 5737 5735 5734 5732 5731 5729 5727 5725 5724 5723 5722 5722 5722 5723 5724 5725 5727 5728 5729 5731 5733 5736 5739 5742 5745 5748
5743 5743 5742 5742 5741 5740 5739 5738 5737 5735 5733 5731 5730 5728 5726 5725 5723 5721 5719 5717 5716 5714 5714 5714 5714 5714 5714 5715 5716 5717 5718 5720 5722 5725 5727 5730 5733 5737
5739 5738 5737 5736 5735 5734 5733 5732 5730 5728 5726 5725 5723 5721 5719 5717 5715 5713 5711 5709 5708 5707 5706 5705 5705 5705 5705 5705 5705 5706 5707 5709 5711 5714 5716 5719 5722 5725
5734 5733 5732 5731 5730 5729 5727 5725 5724 5721 5720 5718 5716 5713 5711 5709 5707 5705 5703 5701 5699 5698 5697 5697 5696 5696 5695 5695 5696 5697 5697 5698 5700 5702 5704 5707 5710 5713
5729 5728 5727 5725 5724 5722 5721 5719 5717 5715 5713 5711 5709 5706 5704 5701 5699 5697 5695 5693 5691 5690 5688 5688 5687 5686 5686 5686 5686 5686 5687 5688 5690 5691 5694 5696 5698 5701
5724 5722 5721 5720 5718 5716 5715 5713 5710 5708 5706 5703 5701 5699 5696 5693 5691 5689 5687 5684 5683 5681 5679 5679 5677 5676 5677 5676 5676 5676 5677 5678 5680 5681 5683 5685 5688 5690
5718 5717 5715 5713 5712 5710 5708 5706 5704 5701 5699 5696 5694 5692 5689 5686 5683 5681 5679 5676 5674 5673 5671 5669 5668 5667 5667 5667 5666 5666 5667 5668 5669 5671 5672 5674 5676 5679
5713 5711 5709 5707 5705 5703 5701 5699 5696 5694 5692 5689 5687 5685 5682 5679 5676 5673 5671 5668 5666 5665 5663 5661 5659 5658 5657 5657 5657 5656 5657 5657 5658 5660 5662 5663 5665 5668
5708 5706 5704 5702 5699 5697 5695 5692 5690 5688 5685 5683 5680 5677 5675 5672 5669 5667 5664 5661 5658 5656 5654 5652 5651 5649 5648 5648 5648 5647 5647 5647 5648 5649 5650 5652 5654 5657
5703 5701 5699 5697 5694 5692 5689 5687 5684 5682 5679 5676 5673 5670 5668 5665 5662 5659 5657 5654 5651 5648 5646 5644 5642 5640 5639 5638 5638 5638 5637 5637 5637 5638 5640 5641 5644 5646
5700 5697 5695 5693 5690 5687 5684 5682 5679 5676 5673 5670 5667 5664 5660 5657 5655 5652 5650 5647 5644 5641 5638 5636 5633 5632 5630 5629 5628 5628 5628 5628 5628 5628 5629 5631 5633 5635
5697 5694 5691 5689 5686 5683 5680 5677 5674 5671 5667 5664 5660 5657 5654 5651 5648 5645 5642 5640 5637 5634 5631 5628 5625 5623 5621 5620 5619 5618 5618 5618 5618 5618 5619 5621 5623 5625
5693 5691 5688 5685 5682 5679 5676 5673 5669 5666 5662 5658 5655 5651 5648 5644 5641 5638 5635 5632 5629 5626 5623 5621 5618 5615 5613 5611 5610 5609 5608 5608 5608 5609 5610 5612 5614 5615
5690 5687 5684 5681 5678 5675 5672 5668 5664 5661 5657 5653 5649 5645 5642 5638 5635 5631 5628 5625 5622 5619 5616 5613 5610 5607 5605 5603 5602 5600 5599 5599 5599 5600 5601 5603 5605 5606
5686 5683 5680 5677 5674 5671 5667 5664 5660 5656 5652 5648 5644 5640 5636 5632 5628 5625 5621 5618 5615 5612 5609 5605 5602 5599 5597 5595 5594 5593 5591 5590 5591 5592 5593 5594 5596 5597
5682 5679 5676 5673 5670 5666 5663 5659 5655 5651 5647 5643 5639 5635 5631 5626 5622 5618 5615 5611 5608 5605 5602 5598 5595 5592 5590 5588 5587 5586 5584 5583 5583 5583 5585 5586 5588 5590
5677 5674 5672 5669 5665 5662 5658 5654 5650 5646 5642 5638 5634 5630 5625 5621 5616 5612 5608 5605 5602 5598 5595 5592 5589 5586 5583 5582 5580 5578 5577 5576 5576 5576 5576 5578 5580 5582
5672 5670 5667 5664 5661 5657 5653 5650 5646 5642 5637 5633 5629 5624 5620 5615 5611 5607 5603 5599 5595 5592 5589 5586 5583 5580 5577 5575 5573 5571 5570 5569 5569 5569 5570 5571 5572 5573